Weather reports worldwide

Advertisment
Lerida, Spain (8171): temperature & dewpoint: 17.08.2019 14:00:00 - 23.08.2019 14:00:00 (CEST)Lerida, Spain (8171): wind speed: 17.08.2019 14:00:00 - 23.08.2019 14:00:00 (CEST)Lerida, Spain (8171): wind direction: 17.08.2019 14:00:00 - 23.08.2019 14:00:00 (CEST)Lerida, Spain (8171): reduced air pressure: 17.08.2019 14:00:00 - 23.08.2019 14:00:00 (CEST)Lerida, Spain (8171): visibility: 17.08.2019 14:00:00 - 23.08.2019 14:00:00 (CEST)Lerida, Spain (8171): precipitation: 17.08.2019 14:00:00 - 23.08.2019 14:00:00 (CEST)
Date & Time tt [°C] td [°C] ff [km/h] ff [kn] dd ppp [hPa] vv [km] rr [mm]
23.08.2019 14:00:00 - - - - - - - -
23.08.2019 13:00:00 29,2 16,0 5 3 SW 1019,7 20 0,0
23.08.2019 12:00:00 27,3 17,5 5 3 SW 1020,3 20 0,0
23.08.2019 11:00:00 25,7 16,5 2 1 S 1020,9 20 -
23.08.2019 10:00:00 23,0 17,0 5 3 NE 1021,1 19 0,0
23.08.2019 09:00:00 20,7 17,3 5 3 NNE 1020,9 16 0,0
23.08.2019 08:00:00 18,8 17,3 4 2 NNE 1020,9 12 -
23.08.2019 07:00:00 18,5 17,0 5 3 NE 1020,5 11 0,0
23.08.2019 06:00:00 18,8 17,1 4 2 NE 1020,5 12 0,0
23.08.2019 05:00:00 19,3 17,3 5 3 ENE 1020,7 15 -
23.08.2019 04:00:00 19,8 17,2 5 3 NE 1020,8 18 0,0
23.08.2019 03:00:00 20,2 17,2 5 3 NNE 1020,8 19 0,0
23.08.2019 02:00:00 20,6 17,2 8 4 NNE 1020,6 19 -
23.08.2019 01:00:00 20,8 17,0 8 4 NNE 1020,5 20 0,0
23.08.2019 00:00:00 21,4 16,8 8 4 NNE 1020,4 19 0,0
22.08.2019 23:00:00 23,0 16,5 4 2 N 1019,8 20 -
22.08.2019 22:00:00 24,2 14,9 8 4 ENE 1019,2 20 0,0
22.08.2019 21:00:00 26,9 14,3 4 2 N 1018,0 20 0,0
22.08.2019 20:00:00 30,6 12,5 4 2 WNW 1017,5 20 -
22.08.2019 19:00:00 30,9 13,7 8 4 WSW 1017,4 20 0,0
22.08.2019 18:00:00 30,9 13,7 8 4 SSW 1017,8 19 0,0
22.08.2019 17:00:00 30,7 13,5 8 4 W 1018,2 20 -
22.08.2019 16:00:00 29,7 14,7 11 6 WSW 1018,8 20 0,0
22.08.2019 15:00:00 28,9 14,7 9 5 W 1019,5 20 0,0
22.08.2019 14:00:00 27,2 15,6 11 6 SW 1020,1 25 -
22.08.2019 13:00:00 25,6 14,7 11 6 WSW 1020,8 20 0,0
22.08.2019 12:00:00 24,2 15,4 9 5 WSW 1021,3 19 0,0
22.08.2019 11:00:00 22,4 14,8 9 5 SSW 1021,4 24 -
22.08.2019 10:00:00 20,7 15,0 9 5 SW 1021,7 20 0,0
22.08.2019 09:00:00 19,1 15,6 8 4 WSW 1021,5 19 0,0
22.08.2019 08:00:00 17,5 14,9 4 2 SSW 1021,1 20 -
22.08.2019 07:00:00 17,7 15,5 8 4 SW 1020,5 20 0,0
22.08.2019 06:00:00 18,9 17,6 9 5 SW 1019,9 10 0,0
22.08.2019 05:00:00 19,9 18,6 4 2 SSW 1019,5 6 -
22.08.2019 04:00:00 20,5 18,8 5 3 W 1019,2 9 0,0
22.08.2019 03:00:00 21,0 18,8 5 3 NE 1018,8 11 0,0
22.08.2019 02:00:00 21,5 19,1 5 3 NNE 1019,3 13 -
22.08.2019 01:00:00 22,1 19,1 4 2 NNE 1019,6 16 0,0
22.08.2019 00:00:00 22,8 19,2 2 1 NNW 1019,3 19 0,0
21.08.2019 23:00:00 23,5 19,2 4 2 N 1018,8 19 -
21.08.2019 22:00:00 23,9 18,8 2 1 S 1018,8 20 0,0
21.08.2019 21:00:00 24,7 18,2 5 3 SSE 1017,7 20 0,0
21.08.2019 20:00:00 26,1 17,5 4 2 WNW 1017,2 19 -
21.08.2019 19:00:00 26,5 17,6 5 3 NW 1016,8 20 0,0
21.08.2019 18:00:00 27,1 17,0 5 3 NW 1017,1 20 0,0
21.08.2019 17:00:00 27,9 17,4 8 4 WSW 1017,2 20 -
21.08.2019 16:00:00 28,4 16,7 9 5 WSW 1017,5 20 0,0
21.08.2019 15:00:00 28,1 17,3 9 5 WSW 1018,4 20 0,0
21.08.2019 14:00:00 26,9 18,5 11 6 SW 1019,1 20 -
21.08.2019 13:00:00 25,4 17,6 9 5 W 1020,0 19 0,0
21.08.2019 12:00:00 23,8 18,0 8 4 SSW 1020,8 20 0,0
21.08.2019 11:00:00 22,1 17,7 8 4 SW 1021,4 18 -
21.08.2019 10:00:00 19,6 17,6 8 4 WSW 1021,7 19 0,0
21.08.2019 09:00:00 18,0 17,2 8 4 SW 1022,0 7 0,0
21.08.2019 08:00:00 16,8 16,2 4 2 S 1022,0 14 -
21.08.2019 07:00:00 16,9 16,1 4 2 SE 1022,0 4,9 0,0
21.08.2019 06:00:00 17,2 16,6 2 1 WSW 1021,8 - 0,0
21.08.2019 05:00:00 17,5 16,5 2 1 E 1022,0 8 -
21.08.2019 04:00:00 17,7 16,9 2 1 SSE 1022,0 8 0,0
21.08.2019 03:00:00 17,7 16,9 5 3 E 1022,2 8 0,0
21.08.2019 02:00:00 17,9 16,9 4 2 NNE 1022,3 12 -
21.08.2019 01:00:00 18,2 16,9 4 2 N 1022,4 13 0,0
21.08.2019 00:00:00 18,6 17,3 4 2 N 1022,4 13 0,0
20.08.2019 23:00:00 18,7 17,0 0 0 N 1022,1 15 -
20.08.2019 22:00:00 19,5 16,9 2 1 NNW 1021,6 17 0,0
20.08.2019 21:00:00 20,5 17,1 5 3 SSW 1021,3 20 0,0
20.08.2019 20:00:00 22,2 17,3 9 5 SSW 1020,7 20 -
20.08.2019 19:00:00 23,4 17,4 9 5 SSW 1020,3 20 0,0
20.08.2019 18:00:00 23,5 17,5 9 5 SW 1020,5 19 0,0
20.08.2019 17:00:00 22,5 17,6 9 5 SSW 1021,0 20 -
20.08.2019 16:00:00 20,9 18,1 9 5 WSW 1021,2 20 0,0
20.08.2019 15:00:00 20,3 18,4 9 5 WSW 1021,6 20 0,0
20.08.2019 14:00:00 19,0 17,8 8 4 W 1021,4 18 -
20.08.2019 13:00:00 18,8 18,0 8 4 WSW 1021,6 6 2,0
20.08.2019 12:00:00 18,8 18,0 8 4 SW 1021,3 7 3,0
20.08.2019 11:00:00 18,7 17,5 4 2 SW 1021,0 19 -
20.08.2019 10:00:00 18,9 17,9 5 3 NNW 1020,1 6 5,0
20.08.2019 09:00:00 19,2 18,2 8 4 WSW 1018,8 19 0,0
20.08.2019 08:00:00 18,9 17,7 4 2 N 1018,2 10 -
20.08.2019 07:00:00 19,1 17,2 8 4 NNE 1017,5 10 5,0
20.08.2019 06:00:00 20,5 18,3 11 6 NW 1017,0 10 0,4
20.08.2019 05:00:00 22,4 17,5 15 8 W 1016,5 20 -
20.08.2019 04:00:00 23,1 19,1 2 1 NNE 1016,0 19 0,0
20.08.2019 03:00:00 24,0 19,1 5 3 N 1015,9 19 0,0
20.08.2019 02:00:00 24,4 19,5 4 2 WNW 1016,2 19 -
20.08.2019 01:00:00 24,6 19,7 4 2 WNW 1016,3 20 0,0
20.08.2019 00:00:00 24,7 19,8 4 2 WSW 1016,4 20 0,0
19.08.2019 23:00:00 25,4 19,5 5 3 WSW 1016,0 20 -
19.08.2019 22:00:00 25,9 19,1 5 3 WSW 1015,7 20 0,0
19.08.2019 21:00:00 26,4 19,0 9 5 SSW 1014,9 20 0,0
19.08.2019 20:00:00 28,5 19,2 15 8 SW 1014,5 20 -
19.08.2019 19:00:00 30,1 17,2 4 2 NNW 1013,8 20 0,0
19.08.2019 18:00:00 30,4 16,8 5 3 N 1013,8 20 0,0
19.08.2019 17:00:00 31,2 16,4 8 4 NW 1014,3 20 -
19.08.2019 16:00:00 30,9 16,1 8 4 NE 1014,8 19 0,0
19.08.2019 15:00:00 30,2 15,5 5 3 SSE 1015,6 20 0,0
19.08.2019 14:00:00 28,1 15,0 5 3 NNE 1016,1 40 -
19.08.2019 13:00:00 26,9 14,3 8 4 SSE 1016,6 20 0,0
19.08.2019 12:00:00 24,7 14,5 8 4 S 1017,0 20 0,0
19.08.2019 11:00:00 22,8 13,8 9 5 WSW 1017,2 20 -
19.08.2019 10:00:00 22,1 13,7 13 7 SSW 1016,7 20 0,0
19.08.2019 09:00:00 21,0 14,4 11 6 SSW 1016,5 20 0,0
19.08.2019 08:00:00 20,0 14,4 9 5 SSW 1015,7 25 -
19.08.2019 07:00:00 20,4 14,7 8 4 S 1015,2 20 0,0
19.08.2019 06:00:00 21,1 15,9 9 5 SSW 1014,8 20 0,0
19.08.2019 05:00:00 21,9 16,0 11 6 SSW 1014,2 20 -
19.08.2019 04:00:00 23,4 16,2 9 5 S 1013,8 20 0,0
19.08.2019 03:00:00 24,2 17,4 8 4 S 1013,4 20 0,0
19.08.2019 02:00:00 24,0 16,8 4 2 ESE 1013,0 20 -
19.08.2019 01:00:00 24,7 17,2 5 3 N 1012,7 20 0,0
19.08.2019 00:00:00 25,9 18,6 5 3 N 1011,6 20 0,0
18.08.2019 23:00:00 26,8 17,8 2 1 SW 1011,0 20 -
18.08.2019 22:00:00 28,1 17,6 5 3 SW 1010,1 20 0,0
18.08.2019 21:00:00 29,9 17,4 9 5 S 1008,7 20 0,0
18.08.2019 20:00:00 32,9 17,1 11 6 S 1007,9 20 -
18.08.2019 19:00:00 34,9 18,5 15 8 S 1007,7 20 0,0
18.08.2019 18:00:00 36,5 14,5 5 3 E 1007,8 20 0,0
18.08.2019 17:00:00 37,6 16,0 5 3 E 1008,0 20 -
18.08.2019 16:00:00 36,5 16,1 5 3 NE 1008,7 20 0,0
18.08.2019 15:00:00 34,9 18,9 8 4 ENE 1009,5 20 0,0
18.08.2019 14:00:00 33,3 19,4 8 4 NNE 1010,4 19 -
18.08.2019 13:00:00 31,8 19,4 8 4 ESE 1011,3 20 0,0
18.08.2019 12:00:00 30,8 19,8 8 4 ENE 1011,8 19 0,0
18.08.2019 11:00:00 28,8 20,0 11 6 ENE 1011,7 20 -
18.08.2019 10:00:00 26,5 19,6 13 7 NE 1012,3 19 0,0
18.08.2019 09:00:00 24,3 18,9 13 7 ENE 1012,1 20 0,0
18.08.2019 08:00:00 21,9 18,5 8 4 NE 1012,1 19 -
18.08.2019 07:00:00 21,5 18,1 9 5 NE 1011,9 19 0,0
18.08.2019 06:00:00 21,7 17,9 11 6 NE 1011,9 20 0,0
18.08.2019 05:00:00 21,9 17,7 11 6 ENE 1012,2 20 -
18.08.2019 04:00:00 22,0 17,8 9 5 NE 1012,6 20 0,0
18.08.2019 03:00:00 22,1 18,3 8 4 NE 1012,7 20 0,0
18.08.2019 02:00:00 22,5 18,5 8 4 NE 1012,9 20 -
18.08.2019 01:00:00 23,3 18,8 8 4 NE 1013,0 20 0,0
18.08.2019 00:00:00 24,2 19,3 8 4 NE 1013,0 19 0,0
17.08.2019 23:00:00 25,3 19,4 8 4 NE 1012,6 20 -
17.08.2019 22:00:00 27,3 17,5 8 4 SE 1011,9 20 0,0
17.08.2019 21:00:00 28,6 17,8 9 5 S 1011,2 20 0,0
17.08.2019 20:00:00 31,4 18,7 15 8 S 1010,8 20 -
17.08.2019 19:00:00 34,0 19,3 15 8 SSW 1010,8 20 0,0
17.08.2019 18:00:00 36,5 19,5 13 7 S 1010,8 20 0,0
17.08.2019 17:00:00 35,8 18,8 8 4 NNE 1011,0 20 -
17.08.2019 16:00:00 35,8 18,8 8 4 SSW 1011,8 20 0,0
17.08.2019 15:00:00 34,1 18,6 8 4 E 1012,7 20 0,0
17.08.2019 14:00:00 33,2 18,9 5 3 NE 1013,5 20 -

tt = temperature
td = dewpoint
ff = wind speed
dd = wind direction
ppp = reduced air pressure
vv = visibility
rr = precipitation

Next stations